Location: Drocourt
(49.0571°N, 1.7669°E)
Time: 23:06:55
(UTC+00:00)

SR - Pass Details

Date: 14 April 2024
Orbit: 579 x 859 km, 66.7° (Epoch: 25 May)

Event Time Altitude Azimuth Distance (km) Brightness Sun altitude
Rises 04:59:31 0° 254° (WSW) 3,327 - -1.4°
Exits shadow 05:00:01 - 255° (WSW) 3,152 ? -1.3°
Reaches altitude 10° 05:02:25 10° 266° (W) 2,356 ? -0.9°
Maximum altitude 05:06:54 26° 323° (NW) 1,457 ? -0.2°
Drops below altitude 10° 05:11:09 10° 20° (NNE) 2,209 ? 0.5°
Sets 05:13:47 0° 33° (NNE) 3,079 ? 0.9°
